Weather in Uglegorsk

Russia / Amur Oblast     51°45′44″N   128°07′19″E
temp.,
°C
wind,
m/s
gust,
m/s
humid.,
%
clouds,
%
prec.,
mm/h
press.,
hPa
HPBL,
m
9 march, tue
tue900:00−4sw51196100 1.1 1004551
03:00−6wnw489298 1.3 1003195
06:00−9nnw61390100 0.0 1005462
09:00−11nnw81481100 0.0 1009639
12:00−5nnw8157631 0.0 1013929
15:00−3nw9147416 0.0 10161153
18:00−6nw715731 0.0 1018880
21:00−9nw513801 0.0 1022414
10 march, wed
wed1000:00−13wnw34870 0.0 102374
03:00−14wsw23850 0.0 102328
06:00−11s3485100 0.0 102191
09:00−8ssw4980100 0.0 1019447
12:00−3sw61168100 0.0 1016962
15:00−4wsw5991100 0.2 1014724
18:00−2w3786100 0.1 1015275
21:00−6nw5128482 0.1 1018460
11 march, thu
thu1100:00−9nw512840 0.0 1021350
03:00−11nw511800 0.0 1024279
06:00−14nw410780 0.0 1027212
09:00−11nw37760 0.0 1028236
12:00−5wnw34700 0.0 1029449
15:00−4sw46684 0.0 1026848
18:00−6s238414 0.0 102543
21:00−9s369117 0.0 102697
12 march, fri
fri1200:00−10wsw229327 0.0 102621
03:00−11nnw239413 0.0 102723
06:00−13nw11980 0.0 102821
09:00−7s23914 0.0 1027137
12:00−2ssw599424 0.0 1024519
15:000ssw5109641 0.0 1021620
18:00−1sw4119031 0.0 1019362
21:00−2sw4138316 0.0 1018311
13 march, sat
sat1300:00−2wsw5147622 0.0 1017342
03:00−3wsw5157252 0.0 1016322
06:00−4wsw5157246 0.0 1016343
09:00−3wsw5127563 0.0 1016363
12:00+1w369268 0.0 1016397
15:00+1sw239570 0.0 1015384
18:00−1ssw229937 0.0 101453
21:00−2s359869 0.0 1013232